Location: Cazavet
(43.0017°N, 1.0431°E)
Time: 21:30:10
(UTC+00:00)

SL-08 R/B - Pass Details

Date: 18 January 2026
Orbit: 667 x 730 km, 98.5° (Epoch: 10 February)

Event Time Altitude Azimuth Distance (km) Brightness Sun altitude
Rises 06:49:46 0° 153° (SSE) 3,128 7.5 -6.3°
Reaches altitude 10° 06:52:03 10° 150° (SSE) 2,216 6.8 -5.9°
Maximum altitude 06:56:49 57° 72° (ENE) 858 4.1 -5.1°
Drops below altitude 10° 07:01:38 10° 355° (N) 2,236 5.6 -4.3°
Sets 07:03:57 0° 351° (N) 3,159 6.4 -3.9°
